Weather History for KTVL - November, 2014

Change the Weather History Date:

Wednesday, November 12, 2014

  Actual Average Record
Temperature  
Mean Temperature 43 °F 37 °F  
Max Temperature 59 °F 52 °F 67 °F (1995)
Min Temperature 26 °F 23 °F 1 °F (1985)
Degree Days  
Heating Degree Days 22 28  
Month to date heating degree days 246 310  
Since 1 July heating degree days 1007 1542  
Cooling Degree Days 0 0  
Month to date cooling degree days 0 0  
Year to date cooling degree days 99 31  
Moisture  
Dew Point 10 °F    
Average Humidity 30    
Maximum Humidity 50    
Minimum Humidity 10    
Precipitation  
Precipitation T in - 1.53 in (1973)
Month to date precipitation 0.06  
Year to date precipitation 16.87  
Sea Level Pressure  
Sea Level Pressure 29.93 in    
Wind  
Wind Speed 7 mph (SSW)    
Max Wind Speed 20 mph    
Max Gust Speed 27 mph    
Visibility 10 miles    
Events Rain    
T = Trace of Precipitation, MM = Missing Value Source: NWS Daily Summary

Daily Weather History Graph

Daily Weather History Graph

Search for Another Location

Airport or City:

Trip Planner

Search our weather history database for the weather conditions in past years. The results will help you decide how hot, cold, wet, or windy it might be!

Date:

Astronomy

Nov. 12, 2014 Rise Set
Actual Time 6:39 AM PST 4:48 PM PST
Civil Twilight 6:11 AM PST 5:16 PM PST
Nautical Twilight 5:39 AM PST 5:48 PM PST
Astronomical Twilight 5:07 AM PST 6:20 PM PST
Moon 10:12 PM PST (11/12) 11:28 AM PST (11/12)
Length of Visible Light 11h 05m
Length of Day
10h 09m
Waning Gibbous, 67% of the Moon is Illuminated
Nov 12
Waning Gibbous
Nov 14
Last Quarter
Nov 22
New
Nov 29
First Quarter
Dec 6
Full

Hourly Weather History & Observations

Time (PST) Temp. Windchill Dew Point Humidity Pressure Visibility Wind Dir Wind Speed Gust Speed Precip Events Conditions
12:53 AM 35.1 °F - 10.0 °F 35% 29.89 in 10.0 mi Calm Calm - N/A   Clear
1:53 AM 33.1 °F - 10.0 °F 38% 29.91 in 10.0 mi Calm Calm - N/A   Clear
2:53 AM 30.9 °F 26.2 °F 10.9 °F 43% 29.91 in 10.0 mi South 4.6 mph - N/A   Clear
3:53 AM 28.9 °F - 10.0 °F 45% 29.92 in 10.0 mi Calm Calm - N/A   Clear
4:53 AM 28.0 °F 22.8 °F 10.0 °F 47% 29.94 in 10.0 mi SSW 4.6 mph - N/A   Clear
5:53 AM 28.0 °F 22.8 °F 10.0 °F 47% 29.94 in 10.0 mi South 4.6 mph - N/A   Clear
6:53 AM 26.1 °F - 10.9 °F 53% 29.98 in 10.0 mi Calm Calm - N/A   Clear
7:53 AM 32.0 °F - 10.9 °F 42% 29.97 in 10.0 mi Calm Calm - N/A   Clear
8:53 AM 48.9 °F - 12.9 °F 24% 29.92 in 10.0 mi Calm Calm - N/A   Clear
9:53 AM 55.9 °F - -0.0 °F 10% 29.89 in 10.0 mi South 11.5 mph - N/A   Clear
10:53 AM 57.9 °F - 3.0 °F 11% 29.89 in 10.0 mi Variable 6.9 mph - N/A   Clear
11:53 AM 57.9 °F - 6.1 °F 13% 29.89 in 10.0 mi SSW 9.2 mph - N/A   Clear
12:53 PM 57.9 °F - 8.1 °F 14% 29.91 in 10.0 mi South 17.3 mph 24.2 mph N/A   Clear
1:53 PM 57.9 °F - 1.9 °F 10% 29.91 in 10.0 mi South 19.6 mph 27.6 mph N/A   Clear
2:53 PM 55.9 °F - 12.0 °F 18% 29.93 in 10.0 mi South 17.3 mph - N/A   Clear
3:53 PM 54.0 °F - 12.0 °F 19% 29.94 in 10.0 mi SSW 12.7 mph - N/A   Clear
4:53 PM 51.1 °F - 16.0 °F 25% 29.96 in 10.0 mi SSW 10.4 mph - N/A   Clear
5:53 PM 48.9 °F - 19.9 °F 32% 29.98 in 10.0 mi SW 8.1 mph - N/A   Clear
6:53 PM 48.0 °F - 14.0 °F 26% 30.00 in 10.0 mi SSW 8.1 mph - N/A   Clear
7:53 PM 48.0 °F - 5.0 °F 17% 29.98 in 10.0 mi SSW 8.1 mph - N/A   Clear
8:53 PM 46.0 °F 43.1 °F 3.9 °F 18% 29.94 in 10.0 mi SSW 5.8 mph - N/A   Clear
9:53 PM 46.0 °F 42.5 °F 5.0 °F 19% 29.91 in 10.0 mi SSW 6.9 mph - N/A   Partly Cloudy
10:53 PM 46.0 °F - 17.1 °F 31% 29.89 in 10.0 mi Calm Calm - 0.00 in Rain Light Rain
11:53 PM 45.0 °F 38.2 °F 28.9 °F 53% 29.91 in 10.0 mi SSW 15.0 mph 25.3 mph 0.00 in   Overcast